AirNav   Air Wisconsin pilot careers
 
 1621 users online  

5Y7 Hanley Field Airport
Munising, Michigan, USA

GOING TO MUNISING?


FAA INFORMATION EFFECTIVE 19 JULY 2018

Location

FAA Identifier: 5Y7
Lat/Long: 46-21-14.8200N / 086-37-15.5650W
46-21.247000N / 086-37.259417W
46.3541167 / -86.6209903
(estimated)
Elevation: 984 ft. / 300 m (estimated)
Variation: 04W (1985)
From city: 3 miles SE of MUNISING, MI
Time zone: UTC -4 (UTC -5 during Standard Time)
Zip code: 49895

Airport Operations

Airport use: Open to the public
Activation date: 04/1940
Control tower: no
ARTCC: MINNEAPOLIS CENTER
FSS: GREEN BAY FLIGHT SERVICE STATION
NOTAMs facility: GRB (NOTAM-D service available)
Attendance: MAY-NOV IREG
Wind indicator: lighted
Segmented circle: yes
Lights: SS-SR
Beacon: white-green (lighted land airport)

Airport Communications

CTAF: 122.9

Nearby radio navigation aids

VOR radial/distance  VOR name  Freq  Var
ISQr326/29.3SCHOOLCRAFT COUNTY VOR/DM110.4005W
SAWr095/32.2SAWYER VOR/DME117.1004W

Airport Services

Parking: tiedowns
Airframe service: NONE
Powerplant service: NONE
Bottled oxygen: NONE
Bulk oxygen: NONE

Runway Information

Runway 18/36

Dimensions: 4000 x 120 ft. / 1219 x 37 m
Surface: turf, in good condition
Runway edge markings: 18/36 MKD WITH CONES.
Gradient: N
RUNWAY 18  RUNWAY 36
Latitude: 46-21.604167N46-20.946000N
Longitude: 086-37.086167W086-37.086167W
Elevation: 982.0 ft.963.0 ft.
Gradient: 0.5% UP
Traffic pattern: leftleft
Obstructions: 83 ft. trees, 1029 ft. from runway, 200 ft. right of centerline, 12:1 slope to clear
APCH RATIO 50:1 BASED ON STRAIGHT OUT.
58 ft. trees, 2064 ft. from runway, 35:1 slope to clear

Airport Ownership and Management from official FAA records

Ownership: Publicly-owned
Owner: U.S. FOREST SERVICE
101 COURT STREET
MUNISING, MI 49862
Phone 906-387-2512
ARPT LEASED TO ALGER COUNTY; COURT HOUSE; 101 COURT ST MUNISING MI 49862. 906-387-2076
Manager: DICK BOWERMAN
101 COURT ST
MUNISING, MI 49862
Phone 906-387-3572

Airport Operational Statistics

Aircraft based on the field: 1
Single engine airplanes: 1
    
Aircraft operations: 200/year *
50% transient general aviation
50% local general aviation
* for 12-month period ending 31 December 2015

Additional Remarks

ARPT CLSD NOV - MAY 14.
BIRDS & DEER ON & INVOF ARPT.

Instrument Procedures

There are no published instrument procedures at 5Y7.

Some nearby airports with instrument procedures:

KISQ - Schoolcraft County Airport (29 nm SE)
KSAW - Sawyer International Airport (32 nm W)
KESC - Delta County Airport (43 nm SW)
KERY - Luce County Airport (48 nm E)
KSJX - Beaver Island Airport (59 nm SE)
 
Loc | Ops | Rwys | IFR | FBO | Links
Com | Nav | Svcs | Stats | Notes


 
Area around 5Y7 (Hanley Field Airport)
 
Road maps at: MapQuest Bing Google
 
Aerial photo
WARNING: Photo may not be current or correct
Aerial photo of 5Y7 (Hanley Field Airport)
Do you have a better or more recent aerial photo of Hanley Field Airport that you would like to share? If so, please send us your photo.

 
Sectional chart

 
Airport distance calculator
Flying to Hanley Field Airport? Find the distance to fly.

From to 5Y7

Sunrise and sunset
Times for 14-Aug-2018
 Local
(UTC-4)
 Zulu
(UTC)
Morning civil twilight06:1210:12
Sunrise06:4510:45
Sunset20:5700:57
Evening civil twilight21:3001:30

Current date and time
Zulu (UTC)  14-Aug-2018 16:27:30
Local (UTC-4)  14-Aug-2018 12:27:30
 
METAR
KISQ 
30nm SE 
141615Z AUTO 19006KT 10SM CLR 27/23 A2988 RMK AO2 T02650227
KSAW 
32nm W 
141547Z 25004KT 10SM SKC 28/19 A2990
KESC 
40nm SW 
141556Z AUTO 00000KT 10SM CLR 29/21 A2989 RMK AO2 SLP133 T02890206
KERY 
49nm E 
141615Z AUTO 28003KT 7SM SCT060 28/21 A2988 RMK AO2 T02810209
TAF
KSAW 
32nm W 
141132Z 1412/1512 20005KT P6SM SCT060 FM141800 33008KT P6SM VCTS BKN050CB FM150000 VRB04KT P6SM SCT035 FM151000 VRB03KT 6SM BR SCT020
NOTAMs
Click for the latest NOTAMs
NOTAMs are issued by the DoD/FAA and will open in a separate window not controlled by AirNav.

 

 
 

Would you like to see your business listed on this page?

 If your business provides an interesting product or service to pilots, flight crews, aircraft, or users of the Hanley Field Airport, you should consider listing it here.  To start the listing process, click on the button below
 
Add a business
 

Other Pages about Hanley Field Airport

Page from the Michigan Airport Directory (PDF)
 
Update a link
 
Copyright © AirNav, LLC. All rights reserved. Privacy Policy  Contact